This demonstration page uses our WeatherBlox Daily Observations layout. Learn more.

Hourly Observations for January 13, 2017

Temp ( °F °C ) Dew Point ( °F °C ) Humidity (%) Winds ( mph kmh ) Pressure ( in mb ) Visibility ( mi km ) Precip ( " mm )
12:54 am 00:54 Clear 18 -7.8 9 -12.8 68 68 NNE 10 17 30.64 1038 10 16.0934 0 0
1:54 am 01:54 Mostly Cloudy 17 -8.3 9 -12.8 70 70 NNE 12 19 30.65 1038 10 16.0934 0 0
2:54 am 02:54 Partly Cloudy 17 -8.3 8 -13.3 68 68 NNE 13 20 30.66 1038 10 16.0934 0 0
3:54 am 03:54 Clear 16 -8.9 7 -13.9 67 67 NE 10 17 30.67 1039 10 16.0934 0 0
4:54 am 04:54 Mostly Cloudy 15 -9.4 6 -14.4 67 67 NNE 10 17 30.69 1039 10 16.0934 0 0
5:54 am 05:54 Clear 14 -10 6 -14.4 71 71 NNE 8 13 30.7 1040 10 16.0934 0 0
6:54 am 06:54 Clear 14 -10 6 -14.4 71 71 NNE 9 15 30.72 1040 10 16.0934 0 0
7:54 am 07:54 Sunny 14 -10 6 -14.4 71 71 NNE 10 17 30.73 1041 10 16.0934 0 0
8:54 am 08:54 Sunny 15 -9.4 7 -13.9 70 70 NE 7 11 30.73 1041 10 16.0934 0 0
9:54 am 09:54 Sunny 17 -8.3 8 -13.3 68 68 NE 8 13 30.74 1041 10 16.0934 0 0
10:54 am 10:54 Sunny 18 -7.8 7 -13.9 62 62 NE 10 17 30.74 1041 10 16.0934 0 0
11:54 am 11:54 Sunny 19 -7.2 4 -15.6 51 51 NE 9 15 30.72 1040 10 16.0934 0 0
12:54 pm 12:54 Mostly Sunny 22 -5.6 4 -15.6 46 46 NE 10 17 30.68 1039 10 16.0934 0 0
1:54 pm 13:54 Cloudy 23 -5 2 -16.7 40 40 ENE 13 20 30.65 1038 10 16.0934 0 0
2:54 pm 14:54 Cloudy 23 -5 2 -16.7 40 40 ENE 7 11 30.63 1037 10 16.0934 0 0
3:54 pm 15:54 Cloudy 24 -4.4 3 -16.1 40 40 E 7 11 30.63 1037 10 16.0934 0 0
4:54 pm 16:54 Cloudy 24 -4.4 4 -15.6 42 42 ESE 7 11 30.63 1037 10 16.0934 0 0
5:36 pm 17:36 Cloudy 23 -5 3 -16 42 42 E 6 9 30.65 1038 10 16.0934 0 0
5:54 pm 17:54 Cloudy 23 -5 5 -15 46 46 ENE 6 9 30.63 1037 10 16.0934 0 0
6:54 pm 18:54 Cloudy 24 -4.4 5 -15 44 44 E 3 6 30.63 1037 10 16.0934 0 0
7:54 pm 19:54 Cloudy 24 -4.4 5 -15 44 44 ENE 3 6 30.63 1037 10 16.0934 0 0
8:54 pm 20:54 Cloudy 24 -4.4 5 -15 44 44 Calm 30.64 1038 10 16.0934 0 0
9:54 pm 21:54 Partly Cloudy 21 -6.1 9 -12.8 59 59 NE 7 11 30.63 1037 10 16.0934 0 0
10:05 pm 22:05 Mostly Cloudy 21 -6 9 -13 58 58 NNE 6 9 30.65 1038 10 16.0934 0 0
10:54 pm 22:54 Cloudy 21 -6.1 10 -12.2 62 62 N 5 7 30.63 1037 10 16.0934 0 0
11:54 pm 23:54 Cloudy 21 -6.1 10 -12.2 62 62 N 5 7 30.63 1037 10 16.0934 0 0

Powered by AerisWeather